TimeCST,TemperatureF,Dew PointF,Humidity,Sea Level PressureIn,VisibilityMPH,Wind Direction,Wind SpeedMPH,Gust SpeedMPH,PrecipitationIn,Events,Conditions,WindDirDegrees,DateUTC
12:54 AM,24.1,19.9,84,30.17,10.0,NW,4.6,-,N/A,,Mostly Cloudy,310,2013-01-16 06:54:00
1:54 AM,24.1,19.9,84,30.17,9.0,WNW,3.5,-,N/A,,Clear,300,2013-01-16 07:54:00
2:54 AM,23.0,19.0,85,30.17,9.0,WNW,3.5,-,N/A,,Clear,300,2013-01-16 08:54:00
3:54 AM,21.9,19.0,89,30.15,8.0,WNW,5.8,-,N/A,,Clear,290,2013-01-16 09:54:00
4:54 AM,21.9,19.0,89,30.14,8.0,West,4.6,-,N/A,,Clear,280,2013-01-16 10:54:00
5:54 AM,18.0,15.1,88,30.13,8.0,SW,4.6,-,N/A,,Clear,220,2013-01-16 11:54:00
6:54 AM,18.0,14.0,84,30.15,7.0,SSW,6.9,-,N/A,,Clear,210,2013-01-16 12:54:00
7:54 AM,18.0,15.1,88,30.16,7.0,Calm,Calm,-,N/A,,Clear,0,2013-01-16 13:54:00
8:54 AM,21.9,19.0,89,30.16,8.0,SSW,3.5,-,N/A,,Clear,200,2013-01-16 14:54:00
9:54 AM,27.0,16.0,63,30.15,10.0,WSW,6.9,-,N/A,,Clear,240,2013-01-16 15:54:00
10:54 AM,30.9,18.0,59,30.12,10.0,SW,9.2,-,N/A,,Clear,220,2013-01-16 16:54:00
11:54 AM,34.0,19.0,54,30.09,10.0,SW,8.1,-,N/A,,Clear,230,2013-01-16 17:54:00
12:54 PM,37.9,19.0,47,30.07,10.0,WSW,12.7,-,N/A,,Clear,240,2013-01-16 18:54:00
2:54 PM,39.9,21.0,47,30.04,10.0,West,11.5,-,N/A,,Clear,260,2013-01-16 20:54:00
3:54 PM,39.9,23.0,51,30.04,10.0,WSW,9.2,-,N/A,,Clear,240,2013-01-16 21:54:00
4:54 PM,37.9,23.0,55,30.06,10.0,WSW,6.9,-,N/A,,Clear,240,2013-01-16 22:54:00
5:54 PM,37.9,23.0,55,30.09,10.0,WSW,10.4,-,N/A,,Partly Cloudy,250,2013-01-16 23:54:00
6:54 PM,36.0,23.0,59,30.11,10.0,WSW,5.8,-,N/A,,Scattered Clouds,250,2013-01-17 00:54:00
7:54 PM,33.1,25.0,72,30.12,10.0,WSW,3.5,-,N/A,,Clear,250,2013-01-17 01:54:00
8:54 PM,30.9,24.1,76,30.12,10.0,West,3.5,-,N/A,,Clear,270,2013-01-17 02:54:00
9:54 PM,30.9,24.1,76,30.13,10.0,Calm,Calm,-,N/A,,Clear,0,2013-01-17 03:54:00
10:54 PM,28.0,25.0,88,30.12,10.0,Calm,Calm,-,N/A,,Clear,0,2013-01-17 04:54:00
11:54 PM,30.9,27.0,85,30.14,10.0,SW,3.5,-,N/A,,Overcast,220,2013-01-17 05:54:00